TimeAKDT,TemperatureF,Dew PointF,Humidity,Sea Level PressureIn,VisibilityMPH,Wind Direction,Wind SpeedMPH,Gust SpeedMPH,PrecipitationIn,Events,Conditions,WindDirDegrees,DateUTC
12:16 AM,39.2,35.6,87,29.79,7.0,Calm,Calm,-,0.03,,Overcast,0,2013-09-25 08:16:00
12:36 AM,39.2,37.4,93,29.78,5.0,West,3.5,-,0.05,,Mostly Cloudy,280,2013-09-25 08:36:00
12:56 AM,39.2,35.6,87,29.78,5.0,West,4.6,-,0.06,,Overcast,260,2013-09-25 08:56:00
1:16 AM,39.2,37.4,93,29.76,7.0,Calm,Calm,-,0.03,,Overcast,0,2013-09-25 09:16:00
1:36 AM,39.2,37.4,93,29.75,6.0,NNE,3.5,-,0.05,,Overcast,20,2013-09-25 09:36:00
1:56 AM,39.2,37.4,93,29.73,5.0,Calm,Calm,-,0.08,,Overcast,0,2013-09-25 09:56:00
2:16 AM,39.2,37.4,93,29.72,3.0,WNW,4.6,-,0.02,,Overcast,300,2013-09-25 10:16:00
2:36 AM,39.2,37.4,93,29.71,3.0,West,3.5,-,0.05,,Overcast,280,2013-09-25 10:36:00
2:56 AM,39.2,35.6,87,29.69,3.0,Calm,Calm,-,0.07,,Overcast,0,2013-09-25 10:56:00
3:16 AM,39.2,37.4,93,29.66,5.0,Calm,Calm,-,0.01,,Overcast,0,2013-09-25 11:16:00
3:36 AM,39.2,37.4,93,29.63,5.0,NE,3.5,-,0.02,,Overcast,50,2013-09-25 11:36:00
3:56 AM,41.0,37.4,87,29.60,10.0,NNE,4.6,-,0.02,,Overcast,20,2013-09-25 11:56:00
4:16 AM,41.0,37.4,87,29.58,8.0,Calm,Calm,-,0.01,,Overcast,0,2013-09-25 12:16:00
4:36 AM,42.8,37.4,81,29.56,8.0,Calm,Calm,-,0.02,,Overcast,0,2013-09-25 12:36:00
4:56 AM,42.8,39.2,87,29.56,8.0,WNW,6.9,-,0.04,,Overcast,290,2013-09-25 12:56:00
5:16 AM,42.8,39.2,87,29.52,7.0,NW,3.5,-,0.01,,Overcast,310,2013-09-25 13:16:00
5:36 AM,42.8,39.2,87,29.49,5.0,Calm,Calm,-,0.01,,Overcast,0,2013-09-25 13:36:00
5:56 AM,42.8,39.2,87,29.51,7.0,WNW,4.6,-,0.02,,Overcast,300,2013-09-25 13:56:00
6:16 AM,42.8,39.2,87,29.51,4.0,WNW,4.6,-,0.01,,Mostly Cloudy,290,2013-09-25 14:16:00
6:36 AM,42.8,39.2,87,29.47,3.0,NE,4.6,-,0.02,,Overcast,40,2013-09-25 14:36:00
6:56 AM,42.8,39.2,87,29.47,2.5,Calm,Calm,-,0.04,,Overcast,0,2013-09-25 14:56:00
7:16 AM,42.8,39.2,87,29.46,9.0,NW,5.8,-,0.02,,Overcast,310,2013-09-25 15:16:00
7:36 AM,42.8,39.2,87,29.46,7.0,NNW,4.6,-,0.02,,Overcast,330,2013-09-25 15:36:00
7:56 AM,42.8,39.2,87,29.47,6.0,West,3.5,-,0.04,,Overcast,270,2013-09-25 15:56:00
8:16 AM,42.8,39.2,87,29.45,5.0,Calm,Calm,-,0.01,,Overcast,0,2013-09-25 16:16:00
8:36 AM,42.8,39.2,87,29.44,4.0,ENE,3.5,-,0.02,,Overcast,70,2013-09-25 16:36:00
8:56 AM,42.8,39.2,87,29.43,5.0,North,4.6,-,0.02,,Overcast,10,2013-09-25 16:56:00
9:16 AM,42.8,39.2,87,29.43,4.0,WNW,3.5,-,N/A,,Overcast,300,2013-09-25 17:16:00
9:36 AM,42.8,39.2,87,29.44,5.0,Calm,Calm,-,N/A,,Overcast,0,2013-09-25 17:36:00
9:56 AM,42.8,41.0,93,29.43,3.0,NNW,4.6,-,N/A,,Overcast,330,2013-09-25 17:56:00
10:16 AM,44.6,41.0,87,29.43,5.0,NNE,6.9,-,N/A,,Overcast,30,2013-09-25 18:16:00
10:36 AM,44.6,41.0,87,29.44,10.0,NNE,4.6,-,N/A,,Overcast,30,2013-09-25 18:36:00
10:56 AM,44.6,41.0,87,29.44,10.0,East,3.5,-,N/A,,Overcast,80,2013-09-25 18:56:00
11:16 AM,44.6,42.8,93,29.45,10.0,Calm,Calm,-,N/A,,Overcast,0,2013-09-25 19:16:00
11:36 AM,46.4,42.8,87,29.48,10.0,WSW,3.5,-,N/A,,Overcast,240,2013-09-25 19:36:00
11:56 AM,46.4,42.8,87,29.48,10.0,Calm,Calm,-,N/A,,Overcast,0,2013-09-25 19:56:00
12:16 PM,48.2,42.8,82,29.48,10.0,SSE,3.5,-,N/A,,Mostly Cloudy,160,2013-09-25 20:16:00
12:36 PM,48.2,44.6,87,29.48,10.0,SW,6.9,-,N/A,,Mostly Cloudy,230,2013-09-25 20:36:00
12:56 PM,48.2,42.8,82,29.48,10.0,Calm,Calm,-,N/A,,Mostly Cloudy,0,2013-09-25 20:56:00
1:16 PM,50.0,44.6,82,29.49,10.0,Calm,Calm,-,N/A,,Mostly Cloudy,0,2013-09-25 21:16:00
1:36 PM,48.2,44.6,87,29.49,10.0,NNW,3.5,-,N/A,,Mostly Cloudy,330,2013-09-25 21:36:00
1:56 PM,48.2,44.6,87,29.49,10.0,Calm,Calm,-,N/A,,Mostly Cloudy,0,2013-09-25 21:56:00
2:16 PM,50.0,44.6,82,29.49,10.0,NW,4.6,-,N/A,,Overcast,320,2013-09-25 22:16:00
2:36 PM,50.0,44.6,82,29.49,10.0,WNW,3.5,-,N/A,,Overcast,300,2013-09-25 22:36:00
2:56 PM,50.0,44.6,82,29.50,10.0,NW,4.6,-,N/A,,Overcast,320,2013-09-25 22:56:00
3:16 PM,48.2,44.6,87,29.50,10.0,NNW,4.6,-,N/A,,Overcast,340,2013-09-25 23:16:00
3:36 PM,48.2,44.6,87,29.50,10.0,NNW,3.5,-,N/A,,Overcast,340,2013-09-25 23:36:00
3:56 PM,48.2,44.6,87,29.51,10.0,Calm,Calm,-,N/A,,Overcast,0,2013-09-25 23:56:00
4:16 PM,50.0,44.6,82,29.51,10.0,NW,3.5,-,N/A,,Mostly Cloudy,310,2013-09-26 00:16:00
4:36 PM,50.0,44.6,82,29.51,10.0,North,3.5,-,N/A,,Overcast,360,2013-09-26 00:36:00
4:56 PM,50.0,44.6,82,29.51,10.0,Calm,Calm,-,N/A,,Overcast,0,2013-09-26 00:56:00
5:16 PM,50.0,44.6,82,29.51,10.0,Calm,Calm,-,N/A,,Overcast,0,2013-09-26 01:16:00
5:36 PM,48.2,44.6,87,29.51,10.0,Calm,Calm,-,N/A,,Overcast,0,2013-09-26 01:36:00
5:56 PM,48.2,44.6,87,29.51,10.0,Calm,Calm,-,N/A,,Overcast,0,2013-09-26 01:56:00
6:16 PM,48.2,46.4,93,29.51,10.0,NNE,3.5,-,N/A,,Overcast,20,2013-09-26 02:16:00
6:36 PM,48.2,46.4,93,29.51,10.0,NE,5.8,-,N/A,,Overcast,50,2013-09-26 02:36:00
6:56 PM,50.0,44.6,82,29.51,10.0,ENE,3.5,-,N/A,,Overcast,70,2013-09-26 02:56:00
7:16 PM,48.2,44.6,87,29.50,10.0,East,4.6,-,N/A,,Mostly Cloudy,90,2013-09-26 03:16:00
7:36 PM,48.2,44.6,87,29.51,10.0,Calm,Calm,-,N/A,,Mostly Cloudy,0,2013-09-26 03:36:00
7:56 PM,48.2,44.6,87,29.51,10.0,ENE,3.5,-,N/A,,Mostly Cloudy,70,2013-09-26 03:56:00
8:16 PM,46.4,42.8,87,29.51,10.0,Calm,Calm,-,N/A,,Overcast,0,2013-09-26 04:16:00
8:36 PM,46.4,42.8,87,29.52,10.0,Calm,Calm,-,N/A,,Overcast,0,2013-09-26 04:36:00
8:56 PM,46.4,42.8,87,29.52,10.0,Calm,Calm,-,N/A,,Overcast,0,2013-09-26 04:56:00
9:16 PM,46.4,42.8,87,29.52,10.0,Calm,Calm,-,N/A,,Overcast,0,2013-09-26 05:16:00
9:36 PM,46.4,42.8,87,29.52,10.0,Calm,Calm,-,N/A,,Overcast,0,2013-09-26 05:36:00
9:56 PM,44.6,42.8,93,29.53,10.0,SSW,4.6,-,N/A,,Overcast,200,2013-09-26 05:56:00
10:16 PM,44.6,42.8,93,29.53,10.0,Calm,Calm,-,N/A,,Overcast,0,2013-09-26 06:16:00
10:36 PM,44.6,42.8,93,29.54,10.0,Calm,Calm,-,N/A,,Overcast,0,2013-09-26 06:36:00
10:56 PM,44.6,42.8,93,29.54,10.0,Calm,Calm,-,N/A,,Mostly Cloudy,0,2013-09-26 06:56:00
11:16 PM,44.6,42.8,93,29.54,10.0,Calm,Calm,-,N/A,,Overcast,0,2013-09-26 07:16:00
11:36 PM,44.6,42.8,93,29.54,9.0,Calm,Calm,-,N/A,,Overcast,0,2013-09-26 07:36:00
11:56 PM,44.6,42.8,93,29.54,10.0,Calm,Calm,-,0.01,,Overcast,0,2013-09-26 07:56:00